Home > Weather > Farmington > Past weeks

Flag for USA Past Weather in Farmington, New Mexico, USA — Yesterday and Last 2 Weeks

Now
86 °F

Sunny.


Feels Like: 83 °F
Forecast: 67 / 94 °F
Wind: 7 mph from North

Location: Four Corners Regional Airport

Current Time: Jun 27, 2016 at 12:34:18 PM

Latest Report: Jun 27, 2016 at 11:53 AM


Visibility: 10 mi

Pressure: 30.08 "Hg (25.07 "Hg at 1617m altitude)

Humidity: 24%

Dew Point: 45 °F

Location of FarmingtonLocation

Past Weather in Farmington — Graph

°F

Farmington Temperature Yesterday

Maximum temperature yesterday: 96 °F (at 5:53 PM)
Minimum temperature yesterday: 71 °F (at 3:53 AM)
Average temperature yesterday: 82 °F

High & Low Weather Summary for the Past Weeks

 TemperatureHumidityPressure
High101 °F (Jun 20, 5:53 PM)56% (Jun 14, 5:53 AM)30.22 "Hg (Jun 14, 5:53 AM)
Low47 °F (Jun 14, 4:53 AM)2% (Jun 18, 4:53 PM)29.78 "Hg (Jun 14, 7:53 PM)
Average77 °F21%29.94 "Hg
* Reported Jun 12 10:53 AM — Jun 27 10:53 AM, Farmington, Weather by CustomWeather, © 2016

Note: Actual official high and low records may vary slightly from our data, if they occured in-between our weather recording intervals... More about our weather records

Advertising

Farmington Weather History for the Previous 24 Hours

Scroll right to see more
 ConditionsComfort  
Time TempWeatherWind HumidityBarometerVisibility
10:53 AM
Mon, Jun 27
82 °FSunny.5 mph29%30.10 "Hg10 mi
9:53 AM77 °FSunny.3 mph36%30.12 "Hg10 mi
8:53 AM73 °FSunny.5 mph40%30.14 "Hg10 mi
7:53 AM69 °FSunny.6 mph42%30.14 "Hg10 mi
6:53 AM65 °FClear.5 mph47%30.13 "Hg10 mi
5:53 AM62 °FClear.No wind50%30.10 "Hg10 mi
4:53 AM66 °FClear.7 mph50%30.07 "Hg10 mi
3:53 AM67 °FClear.9 mph53%30.06 "Hg10 mi
2:53 AM70 °FClear.9 mph47%30.03 "Hg10 mi
1:53 AM73 °FClear.14 mph41%30.04 "Hg10 mi
12:53 AM75 °FClear.12 mph34%30.04 "Hg10 mi
11:53 PM
Sun, Jun 26
76 °FClear.12 mph29%30.03 "Hg10 mi
10:53 PM80 °FClear.8 mph24%30.00 "Hg10 mi
10:00 PM81 °FClear.14 mph23%30.22 "Hg10 mi
8:53 PM83 °FSunny.13 mph23%29.94 "Hg10 mi
7:53 PM84 °FScattered clouds.17 mph23%29.94 "Hg10 mi
7:00 PM86 °FSunny.24 mph20%30.15 "Hg8 mi
5:53 PM96 °FSunny.12 mph9%29.86 "Hg10 mi
4:53 PM94 °FSunny.9 mph9%29.88 "Hg10 mi
3:53 PM94 °FSunny.10 mph9%29.90 "Hg10 mi
2:53 PM95 °FSunny.10 mph9%29.91 "Hg10 mi
1:53 PM92 °FSunny.8 mph13%29.95 "Hg10 mi
12:53 PM90 °FSunny.6 mph17%29.96 "Hg10 mi
Weather by CustomWeather, © 2016

See weather overviewHow to use our weather pages